Retour au catalogue

DELTA 1 DEB

ActifSSO
NORAD 19291·DEBRIS·🇺🇸 United States

Lancé Nov 6, 1973 depuis Vandenberg Space Force Base

Loading…

Prochains Passages (prochaines 24 heures)

TLE

FraisSource: Space-Track

Époque: Sep 12, 2026, 09:40 UTC

1 19291U 73086HD  26255.40340953  .00000088  00000-0  85301-3 0  9990
2 19291 101.8404 233.3398 0036713 359.3889 156.5484 12.51682393744398

Suivez DELTA 1 DEB en temps réel avec AllMySat

Download on the App Store